Location: Antioch Baptist Church
(32.6696°N, 85.7327°W)
Time: 09:35:35
(UTC+00:00)

Cosmos-2242 - Pass Details

Date: 03 November 2020
Orbit: 592 x 616 km, 82.5° (Epoch: 26 November)

Event Time Altitude Azimuth Distance (km) Brightness Sun altitude
Rises 10:34:00 0° 13° (NNE) 2,885 6.6 -19.1°
Reaches altitude 10° 10:36:53 10° 33° (NNE) 1,978 6.0 -18.5°
Maximum altitude 10:39:50 18° 76° (ENE) 1,538 6.0 -17.8°
Drops below altitude 10° 10:42:47 10° 119° (ESE) 1,972 6.7 -17.2°
Sets 10:45:38 0° 138° (SE) 2,872 7.3 -16.6°
